Regional Weather Roundup
Issued by NWS

Home | Current Version | Previous Version | Graphics & Text | Print | Product List | Glossary On
Versions: 1 2 3 4 5 6 7 8 9 10 11 12 13 14 15 16 17 18 19 20 21 22 23 24 25 26 27
000
ASUS45 KCYS 230310
RWRWY

WYOMING REGIONAL WEATHER ROUNDUP
NATIONAL WEATHER SERVICE CHEYENNE WY
900 PM MDT FRI JUL 22 2016

NOTE:  "FAIR" INDICATES FEW OR NO CLOUDS BELOW 12,000 FEET
WITH NO SIGNIFICANT WEATHER AND/OR OBSTRUCTIONS TO VISIBILITY.

WYZ001-230400-
YELLOWSTONE NATIONAL PARK

CITY           SKY/WX    TMP DP  RH WIND       PRES   REMARKS
LK YELLOWSTONE   N/A     66  20  17 VRB3      30.29S
W YELLOWSTONE  NOT AVBL

$$
WYZ002>013-054>058-071-098>099-230400-
NORTHERN WYOMING

CITY           SKY/WX    TMP DP  RH WIND       PRES   REMARKS
JACKSON        NOT AVBL
CODY           FAIR      84  34  16 W6        30.00S
GREYBULL       FAIR      86  41  20 S9        29.89S
WORLAND        FAIR      82  43  25 S8        29.94F
SHERIDAN       FAIR      74  50  42 W6        29.88F
BUFFALO        FAIR      81  44  27 NW9       29.99S
GILLETTE       FAIR      81  55  40 S14G25    29.97R THUNDER
HULETT         FAIR      84  46  26 W17G28    29.99R
NEWCASTLE      FAIR      79  50  36 SE18G25   29.99R

$$
WYZ014>020-022>026-101>103-230400-
CENTRAL WYOMING

CITY           SKY/WX    TMP DP  RH WIND       PRES   REMARKS
BIG PINEY      FAIR      71  44  37 E13       30.24S
PINEDALE       FAIR      63  54  72 CALM      30.26F
DUBOIS         MOCLDY    68  43  40 NW6       30.22F
LANDER         FAIR      75  46  35 S5        30.10F
RIVERTON       FAIR      79  43  27 SW8       30.09F
CASPER         FAIR      80  42  25 NW6       30.07F
DOUGLAS          N/A    N/A N/A N/A MISG      30.06R

$$
WYZ021-027>030-104>119-230400-
SOUTHERN WYOMING

CITY           SKY/WX    TMP DP  RH WIND       PRES   REMARKS
EVANSTON       FAIR      74  30  19 W10       30.26S
KEMMERER         N/A    N/A N/A N/A W9        30.26S
FORT BRIDGER   FAIR      79  30  16 W10       30.27S
ROCK SPRINGS   FAIR      75  38  26 S7        30.22F
DIXON          FAIR      70  47  42 SE7       30.29F
RAWLINS        FAIR      77  40  26 W15       30.24S
SARATOGA       FAIR      73  41  31 SW15G23   30.26F
LARAMIE        CLOUDY    75  46  35 S15G21    30.25R
CHEYENNE       FAIR      79  48  33 SW12      30.14S
TORRINGTON     FAIR      73  60  63 SE12      30.00R
PINE BLUFFS    FAIR      73  59  60 E9        30.07S

$$




USA.gov is the U.S. government's official web portal to all federal, state and local government web resources and services.